User: anonymous   Login
Location: Unspecified
(0.0000°N, 0.0000°E)
Time: 21:27:28
(UTC+00:00)
Language:

PAKSAT 1R - Orbit

View from above orbital plane
View from above orbital plane
View from above satellite
View from above satellite

Ground track
Ground track

The orbit data is extracted from the following two-line orbital elements,

1 37779U 11042A   17229.21858205  .00000132  00000-0  00000+0 0  9998
2 37779   0.0138 119.1011 0002578  25.9139 297.4480  1.00273012 21937
Epoch (UTC): 17 August 2017 05:14:45
Eccentricity: 0.0002578
inclination: 0.0138°
perigee height: 35775 km
apogee height: 35797 km
right ascension of ascending node: 119.1011°
argument of perigee: 25.9139°
revolutions per day: 1.00273012
mean anomaly at epoch: 297.4480°
orbit number at epoch: 2193

The dashed part of the orbit path shows where the satellite is in the earth's shadow,  

DLR